Vorticity
23 24 16 13 13 13 14 12 10 8 10 10 9 11 9 7 5 5 6 4 4 4 4 4 5 4 3 3 4 6 6 7 7 6 5 5 5 6 6 6 7 8 10 10 6 3 3 3 3 4 8 13 15 12 8 5 4 5 6 5 3 3 3 3 3 5 6 5 5 4 4 4 3 3 4 4 4 3 3 3 4 6 7 9 10
8 10 9 9 9 8 11 11 8 6 7 6 6 7 6 4 3 5 6 4 5 5 4 4 5 4 5 6 6 6 7 7 7 5 5 5 5 6 5 6 7 9 9 6 4 3 3 3 5 8 13 14 11 6 4 4 6 7 5 4 3 3 3 4 4 4 4 4 3 3 3 4 4 2 2 3 3 3 3 3 3 5 7 9 11
3 4 4 6 7 6 6 7 6 5 5 4 4 4 5 5 4 5 4 4 5 3 2 3 3 5 7 7 7 8 7 7 6 5 5 5 5 5 6 7 8 8 6 4 3 3 3 4 8 12 13 9 5 3 5 6 7 6 4 3 2 3 4 4 4 3 3 2 1 1 2 2 3 3 3 2 3 4 4 4 6 6 7 9 10
4 3 3 4 5 4 4 5 6 6 5 5 5 4 5 5 5 6 4 4 6 5 5 6 6 6 7 7 7 8 7 6 7 5 5 5 5 5 5 7 8 7 5 4 2 3 4 7 12 12 9 5 3 4 7 8 7 5 3 3 3 3 4 4 4 3 3 1 1 3 3 2 2 3 3 2 2 2 4 4 6 7 8 10 11
4 4 4 4 5 4 2 3 6 7 6 4 4 3 3 3 4 6 5 6 8 7 7 8 7 7 8 7 7 8 7 6 6 6 5 5 5 4 5 7 8 7 4 3 3 4 6 10 13 9 5 3 4 6 8 7 5 3 3 3 3 3 4 5 3 2 3 1 3 5 4 4 3 3 3 3 2 2 3 4 5 7 10 12 13
5 5 5 5 5 4 2 3 6 6 4 4 3 2 1 2 3 4 4 5 6 5 7 7 8 9 9 7 6 6 6 7 7 7 7 6 5 5 6 7 7 7 4 3 3 5 8 13 11 6 3 4 5 7 7 6 4 3 3 3 3 4 4 4 1 2 3 2 4 4 5 6 4 3 3 4 4 3 4 4 5 7 10 13 15
5 6 6 6 6 6 4 5 6 5 5 6 4 2 2 3 4 4 4 5 6 5 5 7 9 9 9 7 6 5 7 8 6 6 8 6 4 5 6 7 7 6 3 3 4 6 10 12 8 4 3 5 6 6 6 5 4 3 3 3 3 4 3 2 1 4 4 3 4 4 6 6 4 4 5 5 5 5 5 5 6 7 9 12 14
4 6 6 6 7 6 5 3 3 5 6 6 5 4 3 5 5 5 4 5 7 5 5 7 9 8 8 7 5 6 6 7 6 5 6 6 5 6 7 7 7 5 3 3 4 7 11 10 5 3 4 6 6 6 6 5 4 3 3 2 3 3 2 2 1 5 5 4 5 5 7 6 5 6 7 6 6 6 6 5 5 6 7 9 11
5 6 5 5 6 5 4 2 2 4 4 4 6 6 5 5 4 5 3 4 7 4 4 4 6 8 8 6 5 7 6 5 5 5 5 5 6 6 7 8 7 5 3 3 5 9 11 8 4 3 5 6 7 6 5 5 4 3 3 2 3 3 3 3 3 6 6 6 7 7 7 7 6 7 7 6 7 7 6 5 4 4 5 7 9
4 5 4 4 5 5 4 3 3 4 4 5 5 7 6 5 4 5 4 4 6 4 5 4 6 8 8 8 6 6 6 6 3 5 6 6 6 7 8 8 7 4 3 4 7 11 10 6 3 4 5 7 6 5 5 4 4 2 2 2 2 3 3 4 6 8 7 8 8 7 6 6 6 7 7 6 7 6 6 5 3 2 3 7 8
5 5 4 5 5 4 6 5 4 4 6 7 5 6 6 5 6 5 4 4 5 4 5 5 6 8 8 7 7 6 5 5 4 5 6 6 7 7 8 8 6 3 3 5 8 11 8 4 3 4 6 7 6 4 5 4 3 2 2 3 2 3 3 4 7 7 6 7 7 6 6 6 6 6 6 6 6 6 7 6 4 2 2 6 7
6 8 6 4 4 4 6 5 5 4 4 9 7 5 5 6 7 5 3 5 5 4 4 4 5 7 8 6 6 7 5 4 5 5 5 7 8 7 9 8 5 3 4 6 9 10 6 4 4 5 7 6 5 4 4 4 3 2 2 3 3 3 4 7 7 4 5 5 5 6 5 5 5 5 5 6 6 6 7 6 6 5 4 5 5
6 7 7 6 6 6 6 5 4 4 3 6 6 4 4 6 6 4 4 5 6 5 4 4 4 5 8 7 5 6 7 6 5 5 5 7 8 7 8 7 4 4 5 7 10 9 6 4 4 6 8 6 5 4 4 3 2 3 3 3 4 4 6 8 5 4 5 4 5 5 3 4 4 5 5 5 6 7 7 6 7 7 5 6 6
9 7 9 9 8 7 7 7 6 6 5 5 4 4 3 4 6 4 3 5 6 6 4 4 5 5 6 8 6 5 6 6 5 5 6 7 8 8 8 5 3 4 5 7 10 9 6 4 5 6 7 7 5 4 3 3 3 4 4 4 5 5 8 6 2 5 5 4 5 3 3 4 4 6 6 5 6 6 6 7 8 7 6 7 7
8 6 10 10 9 9 8 9 8 7 7 7 5 5 5 3 5 5 4 6 5 6 5 3 4 6 6 7 7 5 5 5 6 5 6 8 8 9 7 4 3 4 5 7 9 8 6 4 5 7 7 7 5 5 4 4 4 4 4 4 5 6 8 4 2 5 5 4 3 2 4 4 4 5 5 5 6 6 5 6 8 7 6 6 8
7 7 8 8 7 7 7 8 7 8 7 7 7 6 7 5 5 5 4 5 6 6 7 5 5 7 6 5 6 6 5 5 6 6 7 9 9 8 6 4 3 4 5 7 9 8 5 5 5 7 7 6 5 5 4 4 4 4 4 4 6 6 7 4 2 4 4 4 3 4 5 4 4 5 5 5 5 6 4 5 8 7 6 7 8
6 7 6 8 8 6 7 7 5 7 7 6 8 8 8 8 7 6 5 5 4 5 7 8 8 6 6 6 6 6 5 4 6 6 9 11 9 7 5 4 3 4 6 7 9 7 5 4 5 7 7 7 6 6 5 5 4 4 4 5 7 6 5 4 1 4 5 4 3 5 4 3 3 4 5 4 4 6 5 5 7 8 7 8 8
5 5 6 8 4 2 3 5 5 5 7 7 8 9 8 8 9 7 6 6 4 4 4 7 8 6 6 6 5 5 5 5 6 7 10 11 8 6 5 3 3 4 6 7 8 7 5 5 6 7 8 7 6 6 6 5 4 5 5 5 6 5 5 3 1 6 6 4 5 4 3 3 3 4 4 4 4 5 6 5 6 8 7 9 9
7 6 7 8 4 10 8 5 10 9 8 7 7 7 7 8 8 8 7 6 6 7 4 4 6 4 5 7 7 6 6 5 5 7 9 10 7 6 5 3 3 4 5 7 8 7 5 5 6 7 8 7 6 6 5 4 5 5 4 5 5 4 5 3 3 7 6 5 5 3 3 3 3 3 4 4 3 5 7 6 6 7 7 8 9
8 9 12 8 4 15 14 9 12 13 14 12 9 5 6 8 7 8 7 8 7 9 7 4 6 4 5 10 9 6 5 5 5 7 9 10 7 6 5 3 3 4 6 7 8 7 6 5 7 8 7 7 6 5 5 5 6 5 4 4 3 3 5 4 5 7 6 5 4 3 3 3 3 3 4 4 3 4 6 6 6 7 7 8 9
7 9 12 8 5 8 7 10 9 10 12 12 14 9 8 8 7 7 6 9 8 9 9 6 9 9 9 8 6 9 9 6 6 7 9 9 7 6 5 3 3 4 6 8 8 7 5 6 6 7 7 6 5 5 6 5 7 6 4 4 4 4 4 3 5 6 5 5 3 3 4 3 3 3 4 5 4 4 5 6 7 7 8 7 9
9 9 8 7 11 10 5 11 9 8 9 7 12 13 12 10 7 7 6 9 7 8 11 9 9 7 9 7 7 11 6 4 6 6 7 8 6 6 5 3 3 4 6 8 9 7 5 6 6 7 7 6 5 6 7 6 7 5 2 4 4 4 3 4 5 4 3 3 3 3 3 4 4 4 5 5 6 5 5 6 7 8 8 7 8
9 10 10 7 8 8 6 11 9 8 9 8 9 9 12 12 10 9 8 9 7 9 10 10 8 6 8 7 10 10 1 2 5 6 8 8 7 6 5 4 3 4 6 8 8 7 6 6 7 8 8 6 7 9 9 8 7 3 2 3 3 4 4 5 4 2 4 3 3 3 4 5 4 5 6 6 7 6 5 6 7 8 8 7 8
7 7 10 8 5 7 8 11 9 7 9 9 9 8 11 11 11 13 11 8 8 8 7 10 10 8 9 3 4 3 -1 6 6 4 7 9 10 7 5 3 3 5 6 8 9 7 6 6 8 8 6 5 8 10 7 5 5 3 4 3 2 4 5 5 5 3 4 3 3 4 4 5 5 5 7 7 7 7 6 6 8 8 7 7 8
8 8 8 7 6 8 8 9 8 8 10 10 10 10 12 12 12 14 13 9 8 7 5 10 10 9 9 4 3 -2 -2 12 9 2 8 13 12 7 4 3 4 5 6 8 8 7 6 7 8 6 5 4 5 7 5 4 4 3 4 3 2 3 3 4 5 5 4 2 3 5 5 5 4 6 7 8 7 8 7 7 8 9 8 7 8
7 8 8 7 6 7 7 8 8 9 10 9 11 10 10 9 11 15 15 12 10 9 7 10 11 9 7 5 6 3 7 16 10 7 12 14 10 5 4 4 4 5 6 8 8 7 6 7 7 5 6 5 5 5 5 4 3 4 5 2 2 4 2 1 2 4 5 5 3 3 5 5 5 6 7 7 8 8 7 8 8 9 8 7 8
6 7 7 6 7 8 9 10 9 11 10 9 11 11 10 9 10 14 15 15 11 10 10 11 11 7 8 11 9 10 14 16 12 11 14 11 8 4 4 3 3 5 5 7 8 7 6 5 5 4 4 5 4 4 5 5 3 5 3 0 3 4 4 2 2 2 3 6 6 4 3 5 6 6 7 7 8 8 7 8 8 8 8 7 8
7 7 6 7 9 9 10 11 10 11 11 10 10 10 12 10 10 12 13 13 9 8 8 11 11 9 13 13 12 15 14 15 13 10 13 12 6 3 4 3 3 5 5 8 9 7 6 5 6 5 4 4 4 2 4 5 3 3 0 0 5 4 4 4 3 2 0 3 6 5 4 6 7 6 7 7 7 8 8 8 8 8 7 6 8
8 7 7 8 9 9 10 11 11 10 11 12 11 10 10 9 12 12 11 12 10 9 8 13 15 12 15 12 13 16 10 12 10 10 17 12 5 3 3 2 4 5 4 8 10 8 7 6 7 7 5 4 4 4 5 4 4 5 2 3 7 3 3 4 3 4 3 5 6 4 5 8 7 6 7 7 7 7 8 8 8 9 7 6 8
8 7 8 8 9 9 10 11 10 10 10 13 11 11 12 10 12 11 10 11 10 11 10 14 13 11 17 13 11 11 6 11 13 17 18 7 3 3 3 4 3 5 4 7 10 9 8 6 6 6 5 5 2 3 5 3 4 5 3 4 6 4 5 4 2 4 6 7 6 4 7 8 8 7 6 6 7 7 8 9 9 9 7 6 7
8 8 8 8 9 8 10 11 10 11 10 12 12 13 15 13 12 10 10 11 11 12 8 10 11 11 17 10 8 11 9 16 18 16 10 2 2 2 5 5 2 5 6 7 9 9 9 6 6 6 6 5 2 3 4 3 4 5 3 3 5 4 6 4 1 5 6 6 6 6 8 6 7 8 6 6 6 7 8 7 9 9 6 6 7
9 9 8 7 8 8 10 11 11 12 10 13 13 12 14 13 13 8 8 11 11 11 7 10 13 13 20 7 5 17 16 19 18 10 4 2 3 2 4 4 3 6 5 6 7 9 11 8 6 6 5 4 5 7 5 3 5 6 4 5 5 4 4 3 3 7 5 5 6 6 8 7 8 8 6 8 7 6 9 7 8 9 6 6 7
9 8 8 8 8 9 11 12 11 12 11 12 13 12 12 12 14 8 7 11 10 11 9 14 16 16 20 6 4 17 16 15 12 5 3 3 4 3 3 3 4 6 6 7 6 8 11 10 9 6 4 4 5 5 4 3 4 4 3 6 6 5 6 4 5 5 4 7 7 8 10 7 8 8 6 7 7 6 9 8 8 9 7 5 7
9 8 8 7 8 9 10 11 12 13 11 12 13 12 13 12 13 10 9 10 8 11 9 11 16 14 10 3 7 16 13 11 8 3 3 3 4 3 3 3 3 6 7 6 4 7 11 10 9 8 5 4 5 6 4 3 4 1 2 7 6 5 6 4 6 3 3 8 8 10 9 6 9 9 5 5 6 9 9 8 9 8 6 5 6
9 8 9 7 8 9 10 12 13 14 13 14 13 12 13 12 12 11 9 9 8 11 10 8 13 12 5 8 15 14 10 8 4 2 3 3 4 3 3 4 4 5 6 4 5 6 9 9 7 11 10 6 8 8 4 4 6 1 3 8 5 5 7 5 7 4 5 9 10 12 8 6 9 6 5 5 6 10 9 8 9 8 6 5 6
9 9 9 8 9 9 10 12 12 14 14 14 15 14 13 10 11 12 10 11 9 11 13 10 11 13 13 17 16 10 7 5 2 3 3 3 4 3 3 5 4 4 5 4 5 5 7 8 8 10 9 9 11 7 6 7 8 6 5 8 6 7 9 6 4 3 5 7 7 8 4 5 9 6 8 8 7 10 8 7 9 8 6 4 6
9 8 8 8 9 9 11 13 12 14 15 13 15 14 12 11 14 16 11 10 11 12 14 11 12 13 14 14 10 7 5 2 3 3 3 3 5 5 4 6 4 4 6 4 5 6 7 8 8 9 7 10 11 7 8 6 8 12 7 8 10 8 7 6 5 5 6 6 6 7 6 9 8 4 8 10 8 8 5 6 8 9 7 4 5
9 8 8 8 9 9 11 13 12 14 15 14 14 12 10 12 15 16 9 8 13 15 12 10 12 12 11 10 7 5 3 2 3 3 5 4 5 7 6 6 5 5 6 5 7 6 6 8 8 9 8 10 8 5 10 7 5 10 4 6 12 10 8 9 8 6 7 7 8 12 16 14 7 4 9 9 8 7 6 7 9 9 6 4 5
11 8 7 9 8 10 12 12 11 14 16 15 13 10 11 13 14 15 8 6 13 15 12 11 11 11 8 6 5 3 3 4 3 3 5 4 4 7 7 6 5 6 6 5 8 7 6 7 7 8 7 9 9 5 8 7 4 6 6 7 8 9 9 9 9 6 7 10 6 8 15 12 5 7 10 9 9 9 7 6 8 10 5 4 5
11 8 7 9 8 10 12 12 11 13 16 15 12 11 12 13 12 13 10 8 11 10 10 11 9 8 6 4 4 4 4 5 4 3 4 7 8 7 7 7 6 7 7 7 8 8 7 6 7 8 8 9 9 7 6 6 7 6 6 9 8 9 10 7 10 4 1 10 8 -0 4 6 4 11 14 12 12 10 8 5 5 8 6 5 6
10 8 7 8 8 10 11 10 10 11 14 13 11 11 11 11 9 9 9 10 10 8 8 8 6 5 5 5 5 5 5 5 5 4 3 7 9 7 8 7 6 7 7 8 8 9 8 7 8 8 9 9 7 8 6 4 10 6 4 8 6 8 9 6 12 8 -2 8 12 3 6 9 8 15 9 4 12 11 7 6 5 7 8 6 6
10 9 8 8 8 10 11 10 10 10 11 10 9 10 9 9 7 6 8 9 8 6 6 5 5 5 5 6 5 5 6 5 5 5 4 6 7 8 8 6 8 8 8 9 8 9 9 7 9 7 7 9 7 10 8 5 8 5 6 8 6 9 8 4 13 17 13 12 10 7 11 9 9 15 3 1 18 15 6 7 5 6 8 6 7
9 10 8 8 8 9 11 10 10 9 9 8 8 8 7 7 8 7 8 8 6 5 5 4 5 6 5 6 5 6 6 5 6 6 5 6 7 7 8 8 9 9 9 9 8 10 9 8 10 8 8 9 8 10 11 9 6 5 8 8 9 11 7 7 10 13 19 14 7 11 13 9 11 13 5 7 17 12 7 8 5 4 8 8 6
8 11 9 8 8 9 10 9 9 8 7 7 7 7 7 7 7 8 7 6 5 4 4 4 5 5 5 6 6 6 7 7 7 7 7 8 8 8 8 8 9 8 9 9 9 9 9 10 10 8 10 10 8 7 7 9 7 9 13 10 11 9 6 11 6 5 13 9 10 14 6 5 8 4 2 7 11 11 5 -1 5 8 6 9 7
6 9 10 9 8 8 9 9 8 7 7 7 7 6 6 6 6 5 5 4 4 3 4 5 6 5 6 7 6 6 6 8 9 8 9 9 8 9 9 10 10 9 9 10 11 10 9 10 8 7 9 10 11 8 5 9 11 11 11 9 11 10 8 9 5 9 11 6 10 8 4 9 6 3 11 11 10 14 2 -5 17 19 4 8 8
5 8 11 9 8 8 8 9 8 6 6 5 6 6 4 5 5 5 4 4 4 4 4 6 6 5 5 6 7 7 7 8 9 10 10 10 9 9 10 9 10 10 10 11 11 11 9 7 8 8 7 10 13 9 5 6 10 11 10 8 7 8 10 9 8 10 7 9 10 5 17 23 6 6 18 12 8 13 7 5 20 16 2 8 9
6 5 9 10 8 7 7 8 8 6 5 5 4 5 5 5 5 6 6 5 6 5 4 5 5 5 5 6 7 7 8 7 8 9 9 10 10 9 9 8 9 9 9 11 11 10 8 8 10 9 7 9 10 11 9 3 2 5 8 11 8 8 8 5 6 7 3 10 10 4 12 14 8 14 14 6 7 9 12 15 14 8 5 6 8
7 5 7 10 8 7 6 6 7 6 5 5 5 5 6 6 5 5 5 5 5 5 5 5 4 6 7 7 9 7 7 8 7 8 8 9 9 8 8 8 8 8 7 9 9 8 7 7 9 8 7 7 9 14 13 7 5 2 4 9 8 6 4 0 1 5 7 8 7 8 6 3 12 16 8 7 7 0 6 17 13 8 9 6 7
7 6 6 8 8 7 5 5 5 5 5 4 5 5 5 5 4 4 4 4 5 5 6 7 5 7 8 7 8 8 7 8 8 8 8 8 8 7 7 8 8 8 8 9 10 11 10 7 6 8 7 6 9 10 7 10 14 9 7 8 7 8 10 12 3 -5 8 12 8 15 12 6 12 11 7 8 3 -5 2 18 18 8 9 10 7
7 7 7 6 8 7 5 6 5 4 6 4 4 4 3 4 4 4 4 5 6 6 6 7 7 7 8 8 8 8 8 8 8 8 8 7 7 7 7 7 7 8 9 9 9 12 11 8 7 9 8 7 8 5 4 10 11 7 6 6 9 7 4 14 9 -3 7 4 -4 8 12 8 11 9 8 8 5 1 5 21 22 8 9 12 7
7 8 8 5 6 7 6 5 5 5 5 5 3 3 3 4 4 4 6 7 7 7 6 6 7 7 8 8 8 8 8 8 8 8 8 7 7 7 6 6 7 7 8 7 8 10 10 9 9 8 8 8 8 6 6 7 5 5 4 4 9 6 2 9 10 9 10 -2 -3 10 9 5 7 5 2 5 9 5 8 22 18 7 13 14 7
Height
5879 5880 5881 5882 5883 5883 5884 5885 5886 5887 5887 5888 5888 5889 5890 5891 5892 5893 5895 5895 5896 5897 5898 5899 5900 5901 5901 5901 5901 5901 5901 5901 5901 5902 5902 5901 5902 5902 5903 5903 5904 5903 5903 5903 5903 5903 5902 5903 5903 5903 5903 5903 5903 5903 5903 5903 5903 5903 5903 5903 5904 5905 5905 5905 5906 5907 5907 5907 5906 5905 5905 5905 5904 5903 5902 5901 5900 5899 5899 5898 5897 5896 5895 5894 5893
5881 5881 5882 5883 5884 5884 5885 5886 5887 5888 5888 5889 5889 5890 5891 5892 5893 5894 5895 5896 5897 5898 5899 5900 5901 5901 5900 5900 5901 5901 5902 5902 5902 5903 5903 5903 5903 5903 5904 5904 5904 5904 5903 5903 5903 5903 5903 5904 5904 5904 5904 5904 5904 5904 5904 5904 5904 5904 5904 5904 5905 5906 5906 5907 5907 5908 5908 5908 5907 5906 5906 5906 5905 5904 5903 5902 5901 5900 5899 5898 5897 5896 5895 5893 5892
5882 5883 5883 5884 5885 5886 5886 5887 5888 5889 5889 5890 5890 5891 5891 5892 5893 5894 5895 5897 5898 5898 5899 5900 5901 5900 5900 5900 5901 5902 5903 5903 5903 5903 5904 5904 5904 5904 5905 5905 5905 5904 5903 5903 5904 5904 5904 5904 5905 5905 5904 5905 5905 5905 5905 5905 5905 5905 5905 5906 5906 5907 5908 5908 5909 5909 5909 5908 5908 5907 5907 5906 5906 5905 5904 5903 5902 5900 5899 5898 5896 5895 5894 5893 5892
5883 5884 5885 5885 5886 5887 5887 5888 5889 5890 5890 5891 5891 5891 5892 5893 5894 5895 5896 5897 5898 5898 5899 5899 5900 5900 5900 5900 5901 5902 5903 5904 5904 5904 5904 5904 5904 5905 5905 5905 5905 5904 5904 5904 5905 5905 5905 5905 5905 5905 5905 5905 5905 5905 5906 5906 5906 5907 5907 5907 5908 5908 5909 5909 5910 5910 5910 5909 5908 5908 5907 5907 5907 5906 5905 5904 5902 5900 5899 5898 5896 5895 5894 5893 5891
5884 5885 5885 5886 5887 5888 5888 5889 5890 5891 5892 5892 5892 5893 5893 5894 5894 5895 5896 5897 5897 5898 5898 5899 5899 5900 5900 5900 5901 5902 5904 5905 5906 5906 5906 5905 5905 5905 5905 5905 5905 5904 5904 5905 5905 5906 5906 5906 5906 5906 5906 5906 5906 5906 5907 5907 5908 5908 5908 5908 5909 5910 5911 5911 5911 5911 5910 5910 5909 5908 5908 5908 5907 5907 5905 5904 5902 5901 5899 5898 5897 5895 5894 5893 5891
5885 5885 5886 5887 5888 5889 5889 5890 5892 5893 5893 5893 5893 5894 5894 5894 5894 5895 5896 5896 5897 5897 5898 5898 5899 5900 5900 5901 5902 5903 5904 5906 5907 5908 5908 5907 5905 5905 5905 5905 5905 5905 5905 5905 5906 5906 5906 5906 5906 5906 5907 5907 5907 5907 5908 5908 5909 5909 5909 5910 5911 5912 5912 5912 5912 5912 5911 5910 5910 5909 5909 5908 5908 5907 5905 5904 5903 5901 5899 5898 5897 5896 5894 5893 5891
5885 5886 5887 5888 5889 5890 5890 5891 5893 5894 5894 5894 5894 5894 5894 5894 5895 5895 5896 5896 5897 5898 5898 5899 5899 5900 5901 5902 5903 5904 5905 5907 5908 5908 5910 5908 5905 5905 5905 5905 5905 5906 5906 5906 5906 5907 5907 5907 5907 5907 5907 5907 5908 5908 5909 5909 5910 5910 5910 5911 5912 5913 5913 5913 5913 5913 5912 5911 5910 5910 5909 5909 5908 5907 5905 5904 5903 5901 5900 5899 5897 5896 5894 5893 5891
5885 5886 5887 5888 5889 5890 5891 5892 5893 5894 5894 5894 5894 5894 5895 5895 5895 5896 5896 5896 5897 5898 5898 5899 5899 5900 5901 5903 5904 5905 5906 5908 5908 5908 5909 5908 5906 5905 5906 5906 5906 5907 5907 5907 5907 5907 5907 5907 5907 5908 5908 5908 5909 5909 5910 5910 5911 5911 5912 5912 5913 5914 5914 5914 5914 5913 5913 5912 5911 5911 5910 5909 5907 5906 5905 5904 5903 5901 5900 5899 5898 5896 5894 5893 5891
5886 5887 5888 5888 5889 5890 5891 5893 5893 5894 5894 5894 5894 5895 5895 5896 5896 5896 5896 5896 5897 5897 5898 5899 5899 5900 5902 5904 5905 5905 5906 5907 5907 5908 5908 5907 5906 5906 5907 5908 5908 5908 5908 5908 5908 5907 5908 5908 5908 5908 5909 5910 5910 5910 5910 5911 5911 5912 5913 5913 5914 5914 5914 5914 5914 5913 5913 5913 5912 5911 5910 5909 5907 5906 5905 5904 5903 5901 5900 5899 5898 5896 5895 5893 5892
5887 5888 5888 5889 5889 5890 5891 5892 5893 5893 5894 5894 5894 5895 5895 5896 5896 5896 5897 5897 5897 5898 5898 5899 5900 5901 5903 5905 5906 5906 5906 5907 5907 5908 5909 5908 5907 5907 5908 5909 5909 5909 5909 5909 5909 5908 5908 5909 5909 5909 5910 5910 5911 5911 5911 5912 5912 5912 5913 5914 5914 5915 5915 5915 5914 5913 5913 5913 5912 5911 5910 5908 5907 5906 5905 5904 5903 5901 5900 5899 5898 5897 5895 5894 5893
5888 5888 5888 5889 5890 5891 5891 5892 5893 5893 5894 5894 5895 5895 5895 5896 5896 5897 5897 5898 5898 5899 5899 5900 5901 5902 5904 5906 5907 5907 5907 5907 5907 5908 5909 5909 5908 5908 5909 5910 5910 5910 5910 5910 5910 5909 5909 5909 5910 5910 5911 5911 5911 5912 5912 5912 5913 5913 5913 5914 5914 5915 5915 5915 5915 5914 5914 5913 5912 5911 5910 5908 5907 5906 5905 5904 5903 5902 5900 5899 5898 5897 5896 5895 5894
5889 5889 5889 5889 5890 5891 5892 5892 5893 5894 5894 5895 5895 5895 5896 5896 5897 5898 5898 5899 5899 5899 5900 5901 5902 5903 5905 5906 5907 5908 5908 5908 5908 5908 5909 5909 5909 5909 5910 5911 5911 5911 5912 5911 5911 5910 5910 5910 5911 5911 5911 5912 5912 5913 5913 5913 5914 5914 5914 5914 5914 5915 5915 5915 5915 5915 5914 5913 5912 5911 5910 5908 5907 5906 5905 5904 5903 5902 5901 5900 5899 5898 5896 5895 5894
5888 5890 5890 5890 5891 5891 5892 5893 5893 5894 5895 5895 5895 5896 5896 5897 5897 5898 5898 5899 5899 5900 5901 5901 5902 5904 5906 5907 5907 5908 5908 5908 5908 5908 5909 5909 5909 5910 5910 5911 5911 5912 5913 5913 5912 5912 5912 5912 5912 5912 5912 5913 5913 5913 5914 5914 5914 5914 5914 5914 5914 5915 5915 5915 5915 5914 5914 5913 5912 5911 5910 5908 5907 5906 5905 5904 5903 5902 5901 5900 5899 5898 5897 5896 5895
5889 5890 5892 5892 5892 5892 5892 5893 5893 5894 5894 5895 5895 5896 5896 5897 5897 5898 5898 5899 5900 5900 5901 5902 5903 5904 5906 5907 5907 5907 5907 5908 5909 5909 5909 5910 5910 5910 5910 5911 5912 5912 5913 5913 5913 5913 5913 5913 5913 5913 5913 5914 5914 5914 5914 5915 5915 5915 5915 5915 5915 5915 5915 5915 5914 5913 5913 5912 5912 5911 5910 5908 5907 5906 5905 5905 5904 5903 5901 5900 5899 5898 5897 5896 5895
5890 5892 5892 5892 5892 5892 5892 5893 5893 5894 5894 5894 5895 5896 5896 5896 5897 5897 5898 5900 5901 5901 5901 5902 5903 5904 5905 5906 5906 5907 5907 5907 5908 5909 5909 5910 5910 5911 5911 5911 5912 5913 5913 5914 5914 5914 5914 5914 5914 5914 5914 5914 5914 5915 5915 5915 5915 5915 5916 5916 5916 5916 5916 5916 5915 5914 5913 5913 5912 5911 5910 5908 5907 5907 5906 5905 5904 5903 5902 5901 5900 5899 5897 5896 5895
5891 5892 5892 5892 5892 5892 5893 5893 5893 5893 5894 5894 5895 5896 5896 5896 5896 5897 5899 5900 5901 5901 5902 5902 5903 5904 5905 5906 5906 5906 5906 5907 5908 5909 5910 5910 5911 5911 5911 5912 5912 5913 5914 5914 5915 5915 5915 5915 5915 5915 5915 5915 5915 5915 5916 5916 5916 5916 5917 5917 5917 5917 5917 5917 5916 5915 5914 5914 5913 5911 5910 5909 5908 5907 5906 5906 5905 5904 5903 5902 5901 5899 5898 5896 5896
5891 5891 5891 5892 5892 5893 5893 5893 5893 5893 5894 5895 5896 5896 5897 5896 5896 5897 5898 5900 5900 5901 5901 5902 5904 5904 5905 5905 5906 5906 5906 5907 5909 5909 5910 5910 5911 5911 5911 5912 5913 5913 5914 5915 5916 5916 5916 5916 5915 5915 5915 5915 5916 5916 5917 5917 5918 5918 5918 5919 5919 5919 5918 5918 5917 5916 5915 5914 5913 5912 5910 5910 5909 5908 5907 5906 5905 5904 5903 5902 5901 5900 5898 5897 5896
5891 5891 5891 5891 5892 5893 5893 5893 5893 5893 5894 5895 5896 5896 5897 5897 5897 5897 5898 5899 5899 5900 5901 5902 5904 5904 5905 5905 5906 5907 5907 5908 5909 5909 5909 5910 5910 5911 5912 5912 5913 5914 5915 5916 5916 5917 5917 5916 5916 5916 5916 5916 5916 5917 5918 5919 5919 5919 5919 5919 5920 5920 5919 5919 5918 5917 5916 5915 5914 5913 5912 5911 5909 5908 5907 5906 5906 5905 5904 5903 5902 5900 5899 5898 5896
5891 5891 5890 5891 5892 5892 5892 5892 5892 5892 5893 5894 5894 5895 5896 5896 5896 5897 5898 5899 5899 5900 5901 5902 5903 5905 5905 5906 5907 5907 5908 5909 5909 5909 5909 5910 5910 5911 5912 5913 5914 5915 5915 5916 5917 5917 5917 5917 5917 5917 5917 5917 5917 5918 5919 5920 5921 5920 5920 5920 5921 5921 5920 5920 5919 5918 5917 5916 5915 5914 5913 5912 5910 5909 5907 5907 5906 5905 5904 5903 5902 5900 5899 5898 5897
5890 5891 5890 5890 5890 5891 5891 5891 5891 5891 5892 5892 5892 5893 5894 5895 5895 5896 5898 5899 5899 5900 5901 5902 5903 5905 5906 5907 5907 5906 5908 5909 5909 5909 5909 5909 5910 5911 5912 5913 5915 5916 5916 5917 5917 5918 5918 5918 5918 5917 5917 5918 5919 5920 5921 5921 5921 5921 5921 5922 5922 5921 5921 5921 5920 5919 5918 5918 5917 5915 5914 5913 5911 5910 5909 5907 5907 5906 5905 5904 5902 5901 5900 5899 5897
5891 5891 5890 5890 5890 5890 5890 5890 5890 5890 5891 5890 5891 5892 5893 5893 5893 5895 5897 5897 5899 5900 5901 5902 5903 5904 5905 5906 5906 5906 5909 5909 5908 5908 5909 5909 5910 5911 5913 5914 5915 5916 5917 5917 5918 5918 5918 5918 5918 5918 5918 5919 5920 5921 5922 5922 5922 5922 5922 5923 5923 5922 5922 5922 5921 5920 5920 5919 5918 5917 5915 5914 5912 5911 5910 5909 5908 5907 5906 5904 5903 5902 5901 5899 5898
5891 5891 5890 5889 5889 5889 5889 5889 5890 5890 5890 5890 5891 5892 5892 5892 5892 5894 5895 5896 5898 5899 5901 5901 5902 5903 5904 5903 5904 5908 5909 5908 5907 5908 5909 5910 5910 5912 5913 5914 5915 5916 5917 5918 5918 5919 5919 5919 5919 5919 5919 5920 5921 5923 5923 5923 5923 5923 5923 5923 5923 5923 5923 5923 5922 5922 5921 5920 5919 5918 5917 5915 5914 5912 5911 5910 5909 5908 5907 5905 5904 5903 5901 5900 5898
5891 5891 5890 5889 5888 5888 5889 5890 5891 5891 5890 5890 5890 5891 5891 5891 5892 5893 5893 5895 5896 5898 5900 5900 5901 5902 5903 5903 5905 5908 5908 5905 5907 5908 5909 5911 5911 5912 5914 5915 5916 5917 5918 5918 5919 5920 5920 5919 5919 5920 5920 5921 5923 5925 5924 5924 5924 5924 5924 5925 5925 5925 5925 5924 5924 5923 5922 5922 5920 5919 5918 5916 5915 5913 5912 5911 5909 5908 5907 5906 5905 5904 5902 5901 5899
5892 5891 5891 5890 5889 5888 5888 5890 5891 5891 5890 5891 5890 5890 5890 5891 5891 5892 5892 5893 5895 5897 5898 5899 5900 5901 5902 5904 5905 5907 5905 5904 5906 5908 5910 5911 5912 5913 5914 5916 5916 5917 5918 5919 5920 5920 5920 5920 5920 5920 5920 5921 5924 5925 5925 5924 5925 5925 5926 5926 5926 5926 5926 5925 5925 5924 5923 5922 5921 5920 5919 5917 5916 5914 5913 5912 5910 5909 5908 5907 5906 5905 5903 5902 5900
5893 5892 5891 5890 5889 5888 5888 5890 5892 5891 5890 5891 5891 5890 5890 5891 5891 5891 5891 5893 5894 5896 5897 5898 5900 5901 5902 5904 5905 5906 5905 5904 5907 5909 5910 5911 5912 5914 5915 5916 5917 5918 5919 5920 5920 5921 5922 5921 5921 5921 5921 5921 5923 5925 5926 5925 5925 5926 5927 5927 5927 5927 5927 5926 5926 5925 5924 5923 5922 5921 5919 5918 5916 5915 5914 5912 5911 5910 5909 5908 5907 5906 5904 5903 5901
5893 5893 5892 5891 5890 5890 5889 5890 5891 5890 5889 5890 5891 5890 5891 5891 5891 5891 5891 5893 5894 5895 5895 5897 5899 5901 5902 5904 5904 5905 5905 5905 5908 5909 5911 5912 5913 5915 5916 5917 5918 5918 5919 5920 5922 5923 5923 5923 5922 5922 5922 5921 5923 5925 5926 5926 5926 5927 5928 5928 5928 5927 5928 5927 5926 5926 5925 5923 5922 5921 5920 5919 5917 5916 5915 5913 5912 5910 5909 5909 5908 5907 5905 5904 5902
5893 5893 5892 5892 5891 5891 5890 5890 5890 5890 5888 5888 5890 5890 5891 5891 5891 5891 5891 5892 5894 5894 5895 5897 5898 5900 5901 5902 5903 5903 5905 5906 5908 5910 5911 5912 5914 5915 5916 5917 5918 5919 5920 5921 5923 5924 5924 5924 5923 5923 5922 5922 5923 5925 5927 5928 5928 5928 5928 5928 5928 5928 5928 5928 5927 5926 5925 5925 5923 5922 5921 5919 5918 5917 5916 5914 5913 5911 5910 5909 5909 5907 5906 5904 5903
5893 5892 5892 5892 5891 5891 5891 5891 5890 5890 5889 5889 5889 5890 5890 5891 5891 5890 5891 5892 5893 5894 5896 5897 5898 5899 5900 5901 5902 5903 5905 5907 5908 5910 5911 5913 5914 5916 5917 5917 5918 5919 5920 5922 5923 5925 5925 5926 5925 5925 5924 5923 5923 5925 5928 5930 5930 5929 5928 5928 5929 5929 5929 5929 5928 5927 5927 5926 5925 5924 5922 5920 5919 5918 5916 5915 5913 5912 5911 5910 5909 5908 5907 5905 5904
5892 5892 5891 5891 5890 5890 5891 5891 5890 5890 5890 5890 5890 5890 5889 5890 5890 5890 5891 5892 5893 5894 5896 5897 5898 5898 5899 5900 5902 5903 5905 5908 5909 5910 5912 5913 5915 5916 5917 5918 5919 5920 5921 5923 5924 5926 5926 5927 5927 5927 5926 5925 5924 5924 5927 5930 5931 5930 5929 5929 5929 5930 5929 5929 5929 5928 5928 5928 5927 5925 5923 5922 5920 5918 5917 5915 5914 5913 5912 5911 5910 5909 5908 5906 5905
5892 5891 5891 5890 5890 5890 5890 5891 5891 5890 5890 5890 5890 5890 5890 5891 5891 5891 5892 5893 5894 5896 5896 5897 5897 5898 5899 5901 5902 5903 5906 5908 5909 5910 5912 5913 5915 5917 5918 5918 5919 5920 5922 5924 5925 5927 5927 5928 5928 5928 5928 5927 5925 5924 5926 5929 5931 5931 5930 5931 5931 5932 5931 5930 5929 5928 5929 5928 5927 5926 5924 5922 5920 5918 5917 5915 5914 5913 5912 5912 5911 5910 5909 5907 5906
5892 5892 5891 5890 5890 5889 5890 5890 5891 5890 5890 5890 5889 5889 5890 5891 5891 5891 5892 5894 5895 5896 5897 5897 5897 5899 5900 5902 5902 5903 5907 5908 5909 5911 5913 5914 5916 5917 5918 5919 5920 5921 5922 5924 5926 5928 5929 5930 5930 5930 5929 5928 5927 5926 5926 5928 5930 5930 5931 5932 5933 5934 5932 5931 5930 5929 5929 5927 5926 5926 5924 5922 5920 5918 5917 5916 5914 5913 5912 5912 5912 5911 5910 5908 5907
5893 5892 5891 5891 5890 5890 5889 5890 5890 5890 5890 5890 5890 5890 5890 5891 5892 5892 5893 5894 5895 5896 5896 5896 5898 5900 5902 5902 5903 5905 5907 5908 5909 5911 5914 5915 5917 5918 5919 5920 5921 5922 5923 5924 5926 5928 5930 5931 5931 5931 5931 5930 5929 5928 5927 5927 5928 5929 5930 5932 5933 5934 5933 5932 5931 5930 5928 5927 5926 5926 5924 5922 5920 5919 5918 5916 5915 5913 5913 5913 5912 5912 5911 5909 5908
5893 5893 5892 5891 5891 5890 5890 5890 5890 5890 5890 5890 5890 5890 5890 5892 5893 5893 5894 5894 5895 5896 5896 5897 5898 5901 5903 5904 5904 5906 5908 5908 5910 5913 5915 5916 5918 5919 5920 5921 5922 5923 5924 5925 5927 5928 5930 5932 5932 5932 5932 5931 5930 5929 5929 5928 5928 5928 5928 5930 5931 5932 5933 5932 5931 5929 5928 5927 5927 5927 5924 5922 5921 5920 5918 5917 5915 5914 5914 5913 5913 5913 5912 5910 5909
5894 5893 5893 5892 5891 5891 5891 5891 5891 5890 5890 5890 5891 5890 5890 5891 5893 5894 5894 5894 5895 5896 5896 5898 5899 5901 5903 5903 5904 5906 5908 5909 5912 5914 5916 5918 5919 5920 5921 5922 5923 5924 5925 5926 5927 5928 5930 5932 5932 5933 5933 5932 5931 5930 5930 5930 5930 5929 5929 5930 5929 5930 5930 5931 5930 5927 5927 5927 5926 5925 5923 5921 5921 5920 5919 5917 5916 5915 5914 5914 5914 5914 5913 5911 5910
5895 5894 5893 5893 5892 5892 5892 5892 5892 5891 5891 5891 5891 5891 5891 5892 5893 5894 5895 5895 5896 5897 5897 5899 5900 5901 5903 5904 5905 5907 5909 5911 5913 5915 5917 5918 5920 5921 5922 5923 5924 5925 5926 5926 5927 5929 5930 5932 5932 5932 5933 5933 5932 5932 5931 5932 5931 5930 5930 5930 5930 5929 5929 5929 5928 5926 5925 5925 5924 5923 5922 5921 5921 5920 5920 5919 5917 5916 5915 5915 5915 5915 5914 5912 5911
5895 5895 5894 5893 5893 5893 5893 5893 5892 5892 5892 5892 5892 5892 5892 5893 5894 5895 5896 5897 5897 5898 5899 5900 5901 5902 5904 5905 5907 5908 5910 5912 5914 5916 5918 5919 5920 5921 5923 5924 5925 5926 5926 5927 5927 5929 5930 5931 5931 5932 5932 5932 5933 5932 5932 5932 5932 5933 5932 5931 5931 5931 5930 5929 5928 5925 5925 5925 5923 5922 5922 5922 5921 5921 5920 5919 5918 5917 5916 5916 5916 5915 5914 5913 5912
5896 5896 5895 5894 5894 5894 5894 5894 5894 5894 5893 5893 5893 5893 5894 5895 5896 5896 5898 5898 5899 5900 5901 5902 5902 5904 5905 5907 5908 5910 5911 5913 5915 5917 5918 5920 5921 5922 5924 5925 5926 5927 5927 5928 5928 5929 5930 5931 5931 5931 5931 5932 5932 5932 5932 5931 5932 5933 5933 5933 5934 5933 5931 5930 5929 5926 5925 5926 5925 5923 5923 5923 5921 5921 5921 5920 5918 5917 5916 5916 5916 5916 5915 5914 5913
5897 5896 5896 5895 5895 5894 5894 5894 5894 5895 5895 5894 5894 5895 5895 5895 5897 5898 5899 5900 5900 5901 5903 5904 5905 5906 5907 5909 5910 5912 5913 5915 5917 5918 5919 5921 5922 5924 5925 5926 5927 5927 5928 5929 5929 5930 5930 5930 5930 5930 5931 5932 5932 5932 5931 5931 5931 5933 5933 5934 5935 5934 5932 5931 5930 5928 5927 5927 5927 5925 5925 5925 5923 5922 5921 5920 5919 5917 5916 5916 5916 5917 5916 5915 5914
5898 5897 5897 5896 5896 5895 5895 5896 5896 5896 5896 5896 5896 5896 5896 5897 5898 5900 5900 5902 5903 5903 5905 5906 5907 5908 5910 5911 5913 5914 5915 5917 5919 5920 5921 5922 5924 5925 5926 5927 5927 5928 5929 5929 5930 5930 5930 5930 5930 5930 5930 5931 5931 5931 5930 5930 5930 5931 5932 5934 5934 5933 5932 5932 5930 5929 5929 5929 5928 5927 5927 5926 5924 5923 5923 5921 5919 5918 5917 5917 5916 5917 5916 5915 5915
5898 5898 5898 5898 5897 5896 5897 5897 5897 5897 5898 5898 5898 5898 5898 5899 5900 5902 5903 5904 5906 5906 5907 5909 5910 5911 5912 5914 5915 5916 5917 5919 5920 5921 5922 5924 5925 5926 5927 5927 5928 5929 5929 5930 5930 5930 5930 5930 5930 5930 5930 5930 5930 5930 5929 5929 5929 5931 5933 5933 5932 5932 5932 5931 5930 5930 5930 5929 5929 5928 5929 5928 5926 5925 5924 5921 5919 5918 5918 5917 5917 5917 5916 5916 5916
5899 5899 5899 5899 5898 5898 5898 5898 5898 5899 5899 5900 5900 5900 5901 5901 5902 5903 5905 5906 5907 5908 5909 5910 5912 5913 5914 5916 5917 5918 5919 5920 5921 5922 5923 5925 5926 5927 5927 5928 5928 5929 5929 5929 5930 5930 5930 5930 5930 5930 5930 5930 5930 5930 5930 5929 5930 5932 5933 5932 5931 5931 5932 5930 5930 5930 5931 5930 5930 5929 5929 5928 5927 5926 5925 5922 5919 5918 5918 5917 5917 5918 5918 5917 5916
5900 5900 5900 5900 5900 5899 5899 5899 5899 5900 5901 5902 5902 5902 5903 5903 5904 5905 5906 5907 5908 5909 5911 5912 5914 5915 5916 5917 5918 5919 5920 5921 5922 5923 5924 5925 5926 5927 5927 5928 5928 5928 5929 5929 5929 5929 5929 5930 5930 5930 5930 5931 5930 5931 5931 5930 5930 5931 5932 5932 5931 5932 5933 5931 5931 5932 5932 5932 5931 5930 5929 5928 5927 5926 5925 5923 5920 5919 5918 5917 5918 5919 5919 5918 5917
5901 5901 5901 5901 5901 5901 5900 5901 5901 5902 5903 5904 5904 5904 5905 5905 5906 5907 5908 5909 5910 5911 5913 5914 5915 5916 5917 5918 5919 5920 5921 5922 5923 5924 5925 5926 5927 5927 5928 5928 5928 5928 5928 5929 5929 5929 5929 5930 5930 5930 5930 5930 5930 5931 5931 5931 5931 5930 5931 5932 5932 5934 5935 5933 5932 5933 5933 5933 5932 5931 5929 5928 5928 5926 5925 5924 5921 5920 5919 5918 5919 5919 5919 5918 5917
5901 5901 5901 5902 5902 5902 5902 5902 5903 5904 5905 5905 5906 5906 5907 5908 5908 5909 5910 5911 5912 5913 5914 5916 5917 5918 5919 5919 5920 5921 5922 5923 5924 5925 5926 5926 5927 5927 5927 5928 5928 5928 5928 5929 5929 5929 5930 5930 5930 5930 5930 5930 5931 5931 5931 5931 5932 5932 5932 5932 5931 5933 5935 5934 5933 5932 5933 5933 5932 5932 5931 5930 5930 5928 5926 5924 5922 5921 5921 5920 5920 5920 5920 5919 5918
5901 5902 5902 5902 5903 5904 5904 5904 5905 5905 5906 5907 5908 5908 5909 5910 5911 5912 5912 5913 5914 5915 5916 5917 5918 5919 5920 5920 5921 5922 5922 5923 5924 5925 5926 5927 5927 5927 5927 5928 5928 5928 5928 5929 5930 5930 5930 5930 5931 5930 5930 5930 5931 5931 5931 5931 5932 5932 5932 5931 5930 5931 5933 5934 5933 5932 5933 5933 5932 5932 5931 5930 5930 5928 5926 5923 5922 5922 5923 5922 5922 5921 5921 5919 5919
5901 5903 5903 5903 5904 5905 5905 5905 5906 5907 5908 5909 5910 5910 5911 5912 5913 5914 5914 5915 5916 5917 5918 5919 5919 5920 5921 5921 5922 5923 5923 5924 5925 5926 5926 5927 5927 5927 5927 5928 5928 5928 5928 5929 5930 5930 5930 5930 5931 5931 5931 5930 5931 5931 5931 5931 5931 5931 5930 5931 5931 5930 5931 5933 5933 5932 5933 5933 5932 5932 5932 5931 5929 5927 5925 5923 5923 5923 5924 5924 5924 5923 5921 5920 5920
5901 5903 5904 5904 5904 5905 5906 5907 5907 5908 5909 5910 5911 5912 5913 5914 5915 5915 5916 5917 5918 5918 5919 5920 5920 5921 5921 5922 5923 5923 5924 5924 5925 5926 5927 5927 5928 5927 5928 5928 5928 5928 5929 5929 5930 5930 5931 5931 5931 5931 5931 5931 5931 5931 5931 5931 5931 5931 5930 5931 5931 5930 5930 5931 5932 5933 5933 5933 5933 5934 5934 5932 5929 5927 5926 5924 5923 5924 5924 5925 5925 5924 5923 5921 5921
5901 5902 5904 5905 5905 5906 5907 5908 5908 5909 5910 5911 5912 5913 5914 5915 5916 5917 5918 5918 5919 5919 5920 5920 5921 5921 5922 5922 5923 5923 5924 5924 5925 5926 5927 5927 5927 5927 5927 5928 5928 5928 5929 5930 5930 5930 5931 5931 5931 5931 5931 5931 5931 5932 5932 5932 5932 5931 5931 5931 5931 5931 5931 5932 5932 5932 5932 5932 5933 5934 5933 5930 5927 5926 5926 5925 5924 5924 5925 5925 5924 5925 5925 5923 5922
5901 5902 5903 5905 5906 5906 5907 5908 5909 5910 5911 5912 5913 5914 5915 5916 5917 5918 5919 5919 5920 5920 5921 5921 5921 5922 5922 5923 5923 5923 5924 5924 5925 5926 5927 5927 5927 5927 5927 5928 5928 5929 5929 5930 5931 5931 5930 5931 5931 5931 5931 5932 5932 5932 5932 5932 5932 5932 5932 5932 5931 5931 5932 5932 5932 5933 5932 5932 5933 5932 5931 5929 5929 5928 5927 5926 5925 5926 5926 5925 5924 5924 5925 5925 5923
5901 5901 5902 5904 5906 5907 5907 5909 5910 5911 5912 5913 5913 5914 5915 5916 5917 5918 5919 5920 5920 5921 5921 5921 5922 5922 5922 5923 5923 5923 5924 5924 5925 5926 5927 5927 5927 5927 5928 5928 5928 5929 5929 5930 5931 5931 5931 5931 5932 5932 5932 5932 5932 5932 5932 5932 5932 5932 5933 5932 5932 5932 5932 5931 5931 5933 5933 5932 5932 5931 5931 5930 5930 5929 5929 5928 5928 5927 5927 5926 5924 5924 5925 5925 5923
5900 5901 5902 5903 5905 5907 5908 5909 5910 5911 5912 5913 5914 5915 5916 5917 5918 5918 5919 5920 5921 5921 5922 5922 5922 5922 5923 5923 5923 5923 5924 5924 5925 5926 5926 5927 5927 5927 5928 5928 5929 5929 5930 5930 5930 5931 5931 5932 5932 5932 5932 5932 5932 5932 5932 5932 5932 5932 5932 5933 5933 5932 5932 5932 5932 5932 5932 5932 5931 5930 5931 5931 5930 5930 5929 5930 5929 5928 5928 5927 5925 5925 5926 5926 5924